Waarnemingen

Advertentie
Mijn weer
Chievres, België (6432): temperatuur & dauwpunt: 17.01.2020 16:00:00 - 23.01.2020 16:00:00 (CET)Chievres, België (6432): windsnelheid & windstoten: 17.01.2020 16:00:00 - 23.01.2020 16:00:00 (CET)Chievres, België (6432): windrichting: 17.01.2020 16:00:00 - 23.01.2020 16:00:00 (CET)Chievres, België (6432): luchtdruk: 17.01.2020 16:00:00 - 23.01.2020 16:00:00 (CET)Chievres, België (6432): zicht: 17.01.2020 16:00:00 - 23.01.2020 16:00:00 (CET)
Datum & Tijd tt [°C] td [°C] ff [km/u] ff [kn] fx [km/u] fx [kn] dd ppp [hPa] vv [km]
23.01.2020 16:00:00 2,9 2,0 14 8 - - O 1029,0 3,6
23.01.2020 15:00:00 3,4 1,8 14 8 22 12 ONO 1029,5 6
23.01.2020 14:00:00 3,4 1,7 14 8 25 14 ONO 1030,5 7
23.01.2020 13:00:00 3,4 1,2 18 10 - - ONO 1031,5 9
23.01.2020 12:00:00 3,1 1,6 14 8 22 12 O 1032,2 5
23.01.2020 11:00:00 2,0 1,3 14 8 22 12 ONO 1032,7 3,9
23.01.2020 10:00:00 1,7 1,1 11 6 - - O 1033,0 3,9
23.01.2020 09:00:00 1,2 1,0 14 8 22 12 O 1033,4 2,3
23.01.2020 08:00:00 1,5 1,1 14 8 18 10 ONO 1033,2 3,0
23.01.2020 07:00:00 2,2 2,1 11 6 - - O 1033,5 2,8
23.01.2020 06:00:00 2,0 2,0 14 8 18 10 ONO 1033,5 1,2
23.01.2020 05:00:00 0,6 0,6 7 4 11 6 ONO 1033,9 0,1
23.01.2020 04:00:00 0,7 0,7 4 2 - - N 1034,5 0,1
23.01.2020 03:00:00 1,7 1,6 4 2 7 4 N 1035,2 0,2
23.01.2020 02:00:00 2,1 1,8 7 4 22 12 ONO 1035,7 2,6
23.01.2020 01:00:00 3,9 3,2 11 6 - - O 1036,5 4,0
23.01.2020 00:00:00 3,7 3,2 7 4 11 6 ONO 1036,5 2,5
22.01.2020 23:00:00 3,5 3,2 7 4 11 6 ONO 1036,7 1,8
22.01.2020 22:00:00 3,4 2,9 7 4 - - NO 1036,7 1,7
22.01.2020 21:00:00 3,2 2,5 7 4 14 8 NNO 1036,7 2,7
22.01.2020 20:00:00 3,0 2,1 7 4 11 6 NNO 1037,0 3,4
22.01.2020 19:00:00 3,0 2,0 7 4 - - NNO 1036,7 3,4
22.01.2020 18:00:00 2,7 1,8 9 5 11 6 ONO 1036,5 3,6
22.01.2020 17:00:00 2,7 1,4 7 4 14 8 ONO 1036,5 4,9
22.01.2020 16:00:00 2,7 0,9 7 4 - - ONO 1036,7 5
22.01.2020 15:00:00 2,7 1,4 7 4 11 6 OZO 1036,5 7
22.01.2020 14:00:00 2,3 1,3 7 4 11 6 OZO 1037,2 9
22.01.2020 13:00:00 1,4 1,4 7 4 - - ZO 1037,7 4,6
22.01.2020 12:00:00 -0,1 -0,1 4 2 7 4 N 1038,2 3,9
22.01.2020 11:00:00 -0,5 -0,5 5 3 7 4 OZO 1038,2 0,8
22.01.2020 10:00:00 -1,1 -1,1 4 2 - - N 1040,5 2,0
22.01.2020 09:00:00 -1,5 -1,5 4 2 7 4 N 1039,2 0,3
22.01.2020 08:00:00 -1,9 -1,9 4 2 4 2 N 1038,0 0,2
22.01.2020 07:00:00 -1,6 -1,6 4 2 - - N 1039,4 0,1
22.01.2020 06:00:00 -1,8 -1,8 4 2 4 2 N 1039,7 0,1
22.01.2020 05:00:00 -2,0 -2,0 4 2 4 2 N 1039,7 0,2
22.01.2020 04:00:00 -2,0 -2,0 4 2 - - N 1040,2 0,1
22.01.2020 03:00:00 -2,4 -2,4 4 2 11 6 N 1040,4 0,1
22.01.2020 02:00:00 -2,5 -2,5 13 7 18 10 N 1040,4 0,1
22.01.2020 01:00:00 -3,4 -3,4 4 2 - - N 1037,4 0,1
22.01.2020 00:00:00 -2,9 -2,9 4 2 11 6 N 1037,7 0,1
21.01.2020 23:00:00 -2,5 -2,5 4 2 7 4 N 1039,2 0,1
21.01.2020 22:00:00 -2,3 -2,3 4 2 - - N 1039,7 0,1
21.01.2020 21:00:00 -2,6 -2,6 4 2 7 4 N 1038,2 0,1
21.01.2020 20:00:00 -2,0 -2,0 4 2 11 6 N 1038,9 0,1
21.01.2020 19:00:00 -1,4 -1,3 4 2 - - N 1038,7 0,1
21.01.2020 18:00:00 -1,2 -1,2 4 2 7 4 N 1038,5 0,1
21.01.2020 17:00:00 -0,3 -0,3 4 2 11 6 N 1039,2 0,1
21.01.2020 16:00:00 -0,1 -0,1 4 2 - - N 1040,7 0,2
21.01.2020 15:00:00 -0,2 -0,2 4 2 4 2 N 1043,2 0,2
21.01.2020 14:00:00 -0,4 -0,4 4 2 4 2 N 1044,0 0,1
21.01.2020 13:00:00 -0,9 -0,9 4 2 - - N 1044,0 0,1
21.01.2020 12:00:00 -1,3 -1,3 7 4 11 6 NNW 1040,7 0,1
21.01.2020 11:00:00 -2,1 -2,1 4 2 4 2 N 1043,5 0,2
21.01.2020 10:00:00 -2,8 -2,9 2 1 - - - 1045,0 1,5
21.01.2020 09:00:00 -3,9 -3,9 4 2 4 2 N 1040,7 0,3
21.01.2020 08:00:00 -3,5 -3,6 4 2 4 2 N 1040,4 0,1
21.01.2020 07:00:00 -3,4 -3,4 4 2 - - N 1040,2 0,1
21.01.2020 06:00:00 -2,2 -2,2 4 2 4 2 N 1042,7 0,1
21.01.2020 05:00:00 -2,1 -2,0 4 2 7 4 N 1040,2 -
21.01.2020 04:00:00 -0,6 -0,6 4 2 - - N 1043,0 0,1
21.01.2020 03:00:00 -0,7 -0,9 4 2 4 2 N 1040,9 0,9
21.01.2020 02:00:00 1,4 1,4 4 2 7 4 N 1042,2 2,3
21.01.2020 01:00:00 2,7 2,7 4 2 - - N 1043,0 3,7
21.01.2020 00:00:00 2,5 2,5 4 2 14 8 N 1044,2 1,6
20.01.2020 23:00:00 2,7 2,7 7 4 14 8 O 1043,5 0,2
20.01.2020 22:00:00 3,0 3,0 7 4 - - NNO 1044,0 0,2
20.01.2020 21:00:00 3,5 3,4 7 4 11 6 NO 1045,0 0,4
20.01.2020 20:00:00 3,5 3,4 7 4 11 6 NO 1045,0 0,5
20.01.2020 19:00:00 3,5 3,4 7 4 - - NO 1045,0 0,7
20.01.2020 18:00:00 3,5 3,4 4 2 14 8 N 1044,5 2,7
20.01.2020 17:00:00 3,9 3,1 4 2 7 4 N 1045,2 5
20.01.2020 16:00:00 4,3 3,5 4 2 - - N 1047,9 6
20.01.2020 15:00:00 4,0 3,6 4 2 7 4 N 1049,2 6
20.01.2020 14:00:00 3,5 3,1 4 2 7 4 - 1049,4 7
20.01.2020 13:00:00 3,0 3,0 4 2 - - N 1050,7 4,5
20.01.2020 12:00:00 2,0 2,0 4 2 7 4 N 1051,5 2,1
20.01.2020 11:00:00 1,6 1,6 4 2 7 4 N 1050,2 4,3
20.01.2020 10:00:00 0,9 0,9 4 2 - - N 1050,7 0,2
20.01.2020 09:00:00 0,5 0,4 4 2 4 2 N 1049,7 0,1
20.01.2020 08:00:00 0,5 0,5 4 2 7 4 N 1050,0 0,1
20.01.2020 07:00:00 -0,1 -0,1 4 2 - - N 1049,9 0,1
20.01.2020 06:00:00 -1,2 -1,2 4 2 4 2 N 1048,2 0,1
20.01.2020 05:00:00 -1,6 -1,6 4 2 4 2 N 1046,5 0,1
20.01.2020 04:00:00 -1,1 -1,1 4 2 - - N 1044,9 0,2
20.01.2020 03:00:00 -0,9 -0,9 5 3 4 2 NW 1045,0 2,0
20.01.2020 02:00:00 0,5 0,3 2 1 7 4 - 1047,0 1,3
20.01.2020 01:00:00 1,1 0,9 4 2 - - N 1046,7 7
20.01.2020 00:00:00 1,0 0,3 11 6 11 6 N 1046,4 8
19.01.2020 23:00:00 1,2 0,3 7 4 11 6 N 1045,5 10
19.01.2020 22:00:00 1,5 0,0 11 6 - - N 1043,9 11
19.01.2020 21:00:00 2,3 0,5 7 4 14 8 N 1044,7 12
19.01.2020 20:00:00 2,3 0,4 11 6 14 8 N 1043,4 12
19.01.2020 19:00:00 2,9 0,7 11 6 - - N 1042,5 12
19.01.2020 18:00:00 4,3 1,2 11 6 22 12 N 1042,0 15
19.01.2020 17:00:00 5,9 1,6 11 6 29 16 NNO 1040,7 15
19.01.2020 16:00:00 6,7 2,0 14 8 - - N 1041,4 17
19.01.2020 15:00:00 7,2 2,0 18 10 32 18 N 1042,7 17
19.01.2020 14:00:00 7,1 2,6 18 10 25 14 NNO 1042,5 16
19.01.2020 13:00:00 6,5 2,4 14 8 - - N 1042,4 18
19.01.2020 12:00:00 4,6 2,4 11 6 22 12 N 1039,5 17
19.01.2020 11:00:00 4,2 2,2 14 8 22 12 NNW 1043,0 18
19.01.2020 10:00:00 2,0 1,0 11 6 - - NW 1042,0 17
19.01.2020 09:00:00 1,8 0,9 15 8 22 12 NNW 1039,7 10
19.01.2020 08:00:00 1,0 0,2 7 4 32 18 NW 1036,5 18
19.01.2020 07:00:00 -0,7 -1,3 11 6 - - WNW 1033,7 5
19.01.2020 06:00:00 -0,1 -0,5 5 3 11 6 W 1033,5 7
19.01.2020 05:00:00 0,0 -0,6 11 6 11 6 WNW 1033,0 7
19.01.2020 04:00:00 0,6 -0,3 7 4 - - W 1033,9 12
19.01.2020 03:00:00 1,1 0,2 4 2 7 4 N 1035,5 13
19.01.2020 02:00:00 -0,1 -0,6 4 2 7 4 N 1033,5 8
19.01.2020 01:00:00 0,0 -0,5 4 2 - - N 1032,4 8
19.01.2020 00:00:00 0,0 -0,6 4 2 4 2 N 1030,2 6
18.01.2020 23:00:00 0,9 0,2 4 2 7 4 N 1029,5 9
18.01.2020 22:00:00 1,6 0,5 4 2 - - N 1029,0 12
18.01.2020 21:00:00 2,5 1,0 7 4 7 4 WNW 1029,0 11
18.01.2020 20:00:00 2,8 0,8 4 2 7 4 N 1028,9 16
18.01.2020 19:00:00 3,2 0,8 4 2 - - N 1027,5 17
18.01.2020 18:00:00 3,9 1,3 7 4 11 6 W 1027,0 18
18.01.2020 17:00:00 5,3 1,9 7 4 14 8 W 1026,5 19
18.01.2020 16:00:00 6,5 2,0 7 4 - - W 1028,5 20
18.01.2020 15:00:00 6,4 1,9 11 6 18 10 W 1029,9 20
18.01.2020 14:00:00 6,5 2,6 11 6 22 12 W 1029,9 20
18.01.2020 13:00:00 5,5 3,1 14 8 - - W 1027,2 16
18.01.2020 12:00:00 5,0 3,1 11 6 18 10 WZW 1029,0 19
18.01.2020 11:00:00 3,9 2,5 11 6 18 10 WZW 1025,0 19
18.01.2020 10:00:00 2,7 2,0 14 8 - - ZW 1028,9 19
18.01.2020 09:00:00 2,2 1,4 14 8 22 12 ZW 1023,3 20
18.01.2020 08:00:00 2,3 1,4 14 8 22 12 ZW 1022,5 20
18.01.2020 07:00:00 3,1 1,9 14 8 - - ZW 1021,7 20
18.01.2020 06:00:00 3,7 2,2 18 10 29 16 ZW 1022,5 20
18.01.2020 05:00:00 3,8 2,5 14 8 25 14 ZW 1023,2 20
18.01.2020 04:00:00 3,9 2,5 18 10 - - ZZW 1023,3 20
18.01.2020 03:00:00 3,8 1,9 18 10 25 14 ZZW 1024,0 20
18.01.2020 02:00:00 3,2 1,6 11 6 22 12 ZZW 1020,5 20
18.01.2020 01:00:00 3,5 1,7 11 6 - - ZZW 1021,2 20
18.01.2020 00:00:00 4,4 1,8 18 10 29 16 ZZW 1020,0 20
17.01.2020 23:00:00 4,9 2,3 18 10 25 14 ZW 1020,2 20
17.01.2020 22:00:00 5,3 3,0 18 10 - - ZW 1019,0 20
17.01.2020 21:00:00 5,3 2,9 14 8 25 14 ZW 1018,3 20
17.01.2020 20:00:00 6,0 2,9 14 8 32 18 WZW 1017,8 20
17.01.2020 19:00:00 7,1 2,8 22 12 - - ZW 1018,1 20
17.01.2020 18:00:00 7,2 2,5 18 10 29 16 WZW 1016,6 20
17.01.2020 17:00:00 7,9 3,5 18 10 47 25 WZW 1014,7 20
17.01.2020 16:00:00 9,8 4,2 29 16 - - WZW 1015,3 20

tt = temperatuur
td = dauwpunt
ff = windsnelheid
fx = windstoten
dd = windrichting
ppp = luchtdruk
vv = zicht

Weerstations in de omgeving